Theta_e
307 307 307 308 308 308 308 308 308 309 310 311 309 309 308 308 307 307 306 307 307 307 307 307 308 308 308 308 308 307 307 306 305 305 306 306 306 306 306 305 305 305 305 305 305 305 306 306 306 305 306 306 306 306 305 305 305 307 309 308 307 308 307 307 307 305 304 304 302 299 300 305 305 301 300 300 300 302 302 301 302 302 302 302 302 301 300 301
306 305 306 306 307 307 307 307 307 308 309 310 310 310 309 309 308 308 308 307 306 306 306 307 307 308 308 308 307 307 307 307 306 305 306 306 306 306 306 305 305 305 305 305 305 305 306 306 306 305 306 306 305 305 306 304 305 309 309 307 308 309 306 303 304 303 303 304 303 300 300 303 304 302 301 302 303 302 302 303 302 302 303 303 303 301 300 300
305 305 305 305 305 306 306 306 307 307 308 309 310 310 310 310 309 309 309 309 307 305 306 306 307 307 307 308 308 308 308 307 305 305 305 306 306 306 306 304 305 305 305 306 305 305 306 305 305 305 306 306 304 305 306 305 306 307 307 309 308 306 303 300 300 301 300 301 302 301 299 300 301 301 301 302 303 302 302 304 304 303 304 305 305 304 302 301
304 305 305 305 305 305 305 306 306 307 308 308 309 310 310 310 310 309 309 309 307 306 307 308 307 308 308 308 308 308 307 307 306 305 306 306 306 306 305 304 305 306 306 306 305 305 305 304 304 305 306 306 304 304 305 304 305 306 305 308 306 302 303 301 298 299 298 298 301 301 299 300 301 299 300 302 303 304 304 305 306 305 306 306 305 305 304 303
304 305 305 305 305 305 305 305 305 306 307 308 308 309 310 310 311 311 310 310 308 307 308 308 308 309 308 308 308 307 308 308 306 305 306 306 306 306 305 304 305 306 306 306 305 304 304 304 305 306 306 306 305 305 305 301 302 305 304 303 301 300 304 301 298 298 297 297 299 300 300 301 300 299 300 301 303 306 306 304 305 305 306 304 303 303 303 303
304 304 304 305 305 305 306 305 306 306 307 308 308 308 309 310 310 312 311 310 309 308 308 307 307 308 308 308 308 308 309 308 305 304 306 306 306 306 305 304 305 305 305 305 304 303 305 304 306 307 306 306 305 304 303 299 299 306 304 299 299 300 302 300 297 297 296 298 300 300 301 299 299 301 301 300 302 305 303 300 301 302 302 300 300 300 301 302
304 304 304 305 305 305 305 306 306 305 306 307 308 308 308 309 310 311 312 311 310 308 307 306 307 307 308 308 308 309 310 307 304 305 306 306 306 305 305 304 305 305 305 305 304 304 305 305 306 307 306 305 304 303 302 299 299 305 305 300 299 298 299 298 296 296 296 299 300 298 299 299 301 302 299 299 301 303 303 301 301 301 300 299 299 300 300 301
303 304 304 304 305 305 305 306 306 306 306 307 308 308 308 308 309 310 312 312 311 310 307 306 307 307 308 308 308 311 310 305 304 306 306 306 306 306 305 304 305 305 304 304 304 305 306 306 306 305 306 306 303 303 301 300 302 304 305 301 299 298 299 297 295 296 296 297 297 296 300 301 301 300 298 300 303 303 302 302 301 301 300 300 300 300 301 301
303 303 303 304 304 305 305 306 306 306 306 307 308 308 308 308 309 310 311 312 312 311 308 306 308 307 307 308 310 311 308 305 305 306 306 305 306 306 306 305 305 304 304 304 304 304 305 306 306 304 306 304 302 303 300 302 305 303 303 301 300 299 298 297 297 297 296 297 296 298 302 302 299 298 300 303 303 301 300 300 300 299 300 301 301 301 301 301
303 303 303 304 304 305 305 306 306 307 307 307 308 308 308 307 308 310 311 312 312 312 309 307 308 307 307 309 311 308 306 305 306 306 306 305 306 306 306 305 305 305 304 304 303 304 305 306 304 303 305 303 302 302 300 302 303 300 300 300 299 299 298 297 298 298 297 297 297 300 303 302 298 298 305 305 300 299 300 301 301 300 301 302 302 301 302 301
302 302 303 303 304 304 305 306 307 307 307 307 308 308 308 307 308 310 311 312 312 312 310 307 308 308 307 308 309 307 305 305 306 306 305 305 306 307 307 306 304 304 304 303 303 303 304 304 302 303 305 304 302 301 300 300 300 299 299 300 299 298 299 299 299 299 298 299 297 299 302 301 298 299 306 305 298 298 301 303 303 302 303 303 303 302 302 302
301 302 302 303 304 304 305 306 307 307 307 307 308 308 308 308 308 309 312 312 311 312 310 307 308 308 307 308 308 306 305 305 306 306 305 305 305 307 308 307 305 304 303 304 303 303 304 302 302 304 304 302 303 302 301 298 297 298 298 302 302 300 303 301 300 299 299 301 297 297 302 303 301 301 306 303 298 300 301 304 305 304 304 303 303 302 302 303
301 301 302 302 303 304 304 306 307 308 308 308 308 308 308 308 308 309 312 312 311 312 310 307 308 308 307 308 306 305 305 305 305 305 305 306 305 306 308 309 307 304 303 304 303 303 302 301 303 303 301 302 302 301 301 298 297 299 300 304 307 306 307 302 300 301 301 301 298 299 305 307 307 305 305 301 299 302 303 305 305 304 304 303 303 302 303 304
301 301 301 302 303 304 304 306 307 308 308 308 308 308 309 309 309 309 311 312 312 312 309 308 308 307 308 308 305 304 305 304 305 305 305 306 306 305 307 309 307 303 302 303 303 302 301 301 302 302 299 300 300 299 302 302 300 302 304 307 309 309 307 303 300 302 303 302 300 302 305 308 310 308 306 300 299 302 303 304 304 304 304 304 304 304 304 305
301 301 301 302 302 303 304 305 307 308 308 308 308 309 310 310 309 310 312 312 312 311 308 308 308 307 309 308 304 304 305 304 305 305 304 306 308 307 308 308 307 306 304 303 302 301 301 302 303 302 300 299 300 302 307 306 304 304 306 309 310 308 307 304 299 300 304 302 301 304 305 307 309 308 304 299 299 301 302 304 304 305 305 305 305 305 305 306
304 302 301 302 302 303 304 305 307 308 308 308 309 310 311 311 311 311 313 312 311 309 307 310 308 306 310 309 304 304 305 305 305 306 304 305 309 309 308 308 308 308 306 305 305 304 303 305 305 302 301 302 303 307 310 309 307 306 306 309 309 307 307 305 300 297 301 302 303 304 305 307 308 306 302 298 300 301 301 303 305 306 305 305 306 305 305 306
308 305 302 301 302 303 304 305 307 308 308 308 310 311 311 312 312 311 312 310 309 308 307 309 307 306 309 307 304 305 305 305 305 305 304 305 308 309 308 309 309 308 308 307 307 308 307 308 306 304 304 305 306 309 310 308 307 306 306 307 306 305 304 304 303 300 299 302 304 304 304 306 307 306 304 302 302 302 302 304 306 306 307 306 306 306 306 307
312 310 306 302 301 302 304 305 307 307 308 309 310 312 313 313 313 311 310 308 307 307 306 307 307 306 308 308 306 305 304 305 306 304 304 305 307 308 307 308 308 309 312 311 309 311 311 308 308 309 308 308 308 310 310 307 307 306 305 305 305 304 303 304 304 301 300 303 304 304 304 305 307 307 306 306 303 301 302 304 305 305 306 307 306 306 307 307
312 313 311 306 302 302 303 305 307 308 308 309 311 312 313 314 313 310 309 309 309 310 309 309 311 310 310 311 307 305 305 305 305 304 304 305 306 307 306 307 311 313 313 313 312 312 310 309 310 309 310 310 310 310 309 308 308 306 306 304 304 305 304 305 304 300 299 303 304 304 305 305 306 306 306 306 303 301 302 303 305 306 307 308 307 307 308 308
313 312 313 311 304 301 303 305 307 308 309 310 311 312 314 316 316 314 313 313 311 311 314 314 314 315 312 310 307 306 306 305 305 304 304 305 305 308 308 308 315 315 312 314 314 310 307 310 312 311 310 309 305 302 303 304 305 306 306 305 306 306 305 306 303 298 297 302 305 303 303 304 304 305 306 306 304 302 303 305 307 309 309 309 308 308 308 308
313 312 313 313 308 302 302 306 307 308 309 309 310 313 315 314 316 316 314 314 308 303 311 311 307 312 310 306 306 306 306 307 307 305 304 305 305 308 311 312 314 311 312 314 314 310 309 311 311 307 304 302 300 298 300 303 305 307 307 306 307 306 305 305 301 298 298 302 305 303 303 305 306 307 307 305 304 303 305 307 309 311 310 309 308 308 308 308
313 313 313 313 311 304 302 306 307 308 309 307 309 311 310 309 310 310 308 314 312 302 307 308 306 311 306 303 305 304 308 310 309 308 305 306 308 309 312 313 311 311 313 314 313 311 312 310 306 299 298 299 299 298 301 304 306 307 306 306 305 305 304 303 299 298 299 302 305 304 304 307 308 307 306 303 303 305 305 306 308 309 310 309 308 308 308 308
313 313 313 313 313 306 302 307 307 308 308 306 307 307 308 306 307 308 306 312 315 308 308 309 309 313 308 306 305 304 310 310 309 310 305 307 311 310 312 313 313 313 313 314 313 311 311 308 301 296 297 300 301 300 301 304 305 307 307 305 304 305 305 303 302 300 300 301 303 304 305 309 308 306 306 303 301 303 303 303 305 305 307 308 308 308 307 308
312 314 313 313 314 308 304 307 306 307 308 306 305 305 305 306 306 308 308 309 313 312 308 305 307 311 309 307 304 305 310 308 307 309 304 307 312 309 310 312 312 312 312 316 317 313 309 302 296 297 298 301 302 302 303 304 306 308 309 307 304 305 304 303 303 302 302 300 299 304 307 310 311 310 309 305 302 304 304 304 307 307 305 306 307 307 306 306
310 313 314 313 314 309 305 306 305 305 307 306 305 304 303 306 306 306 307 309 313 312 306 304 306 308 305 303 303 305 309 308 307 305 302 306 310 310 308 306 308 310 313 314 314 311 307 298 295 300 300 301 302 304 304 305 305 306 307 306 304 305 304 304 304 304 305 303 301 304 305 307 314 314 310 307 304 306 307 306 309 309 308 307 307 308 308 307
308 310 312 314 313 309 305 306 304 304 307 307 305 303 303 305 305 304 308 313 317 316 310 307 306 306 304 304 306 307 308 307 304 301 302 304 305 308 308 305 305 308 311 310 308 308 304 296 297 301 302 303 304 304 303 303 305 303 304 302 302 303 304 304 305 305 304 304 303 303 305 307 311 312 309 306 305 307 307 308 308 309 308 307 307 308 308 307
306 308 310 313 313 310 306 304 303 306 309 307 303 302 302 305 306 304 309 316 318 317 312 307 305 305 306 304 305 308 308 308 305 303 303 303 304 306 306 308 307 306 308 307 305 306 301 299 300 300 303 305 305 305 301 299 304 305 301 299 301 303 304 304 306 306 305 306 305 304 306 306 306 310 308 304 306 308 307 307 309 309 308 307 308 308 308 307
303 305 308 312 313 312 308 303 304 308 307 303 302 302 303 306 306 306 313 318 317 314 311 309 306 305 307 304 305 311 310 309 310 307 301 301 304 306 307 312 311 307 305 306 305 305 300 303 303 301 303 304 304 305 299 299 304 305 298 299 301 302 304 304 306 307 305 305 306 305 305 305 306 312 309 304 307 310 309 309 309 309 309 308 308 308 308 308
300 303 306 310 312 312 309 304 306 307 304 301 301 303 304 306 307 309 314 317 316 312 309 309 306 306 309 308 308 313 309 308 312 309 304 303 303 306 308 310 310 308 305 307 308 305 300 302 301 301 303 303 303 300 297 301 304 302 298 300 302 301 303 303 305 307 304 304 307 305 303 305 306 312 311 305 308 311 310 309 308 309 310 309 309 310 309 308
298 300 302 308 310 309 307 305 305 304 301 301 303 303 304 306 310 312 315 315 315 312 309 309 308 308 312 312 312 313 308 308 311 309 310 309 306 307 306 304 307 310 307 308 308 303 299 299 299 301 302 302 301 298 296 299 301 301 301 304 304 302 302 303 303 304 306 305 306 303 301 304 305 310 313 308 309 311 310 309 308 308 309 309 310 311 310 307
297 298 300 306 308 306 305 306 305 302 300 302 303 304 306 310 313 312 315 315 313 314 312 311 311 311 313 312 312 314 311 310 311 310 310 310 308 308 306 304 307 308 306 308 306 301 300 302 301 299 298 299 301 301 298 298 300 302 303 305 305 304 303 304 303 304 306 306 305 301 300 303 304 307 310 309 308 308 308 308 308 308 309 309 310 310 308 307
298 298 301 305 306 305 305 307 305 301 301 302 304 308 310 311 311 312 318 316 311 314 314 310 311 312 311 310 310 312 312 310 310 310 309 307 307 308 309 308 308 307 306 306 305 304 304 303 300 298 297 298 303 305 303 301 302 303 303 304 306 305 305 304 304 304 306 306 303 301 301 302 305 307 308 308 308 307 306 306 307 307 307 309 310 310 308 308
299 300 302 305 306 306 306 307 306 302 302 303 306 312 311 309 310 312 318 317 310 310 310 309 311 309 309 312 311 308 308 309 309 309 307 306 307 310 312 310 309 309 307 305 303 304 306 303 299 301 301 297 300 304 305 305 304 304 305 305 305 305 304 305 305 303 305 305 301 299 301 303 306 307 307 307 308 307 305 303 304 304 304 307 308 309 309 309
300 302 303 306 306 307 307 307 306 304 303 305 309 311 309 309 312 312 315 316 312 310 308 309 311 310 309 310 308 306 307 309 309 308 307 306 306 308 310 308 307 308 305 303 304 304 305 306 303 302 301 297 298 301 301 303 305 304 302 303 305 305 304 305 305 305 306 305 302 299 302 305 307 307 307 306 305 305 303 301 301 300 301 302 304 305 307 308
301 303 305 306 306 306 306 305 305 303 303 308 312 310 308 310 311 310 313 316 313 312 309 307 310 314 312 308 306 306 307 307 308 308 306 306 307 308 308 309 308 307 305 305 305 303 303 304 302 297 297 296 299 299 296 300 306 303 300 302 305 305 305 306 304 305 305 304 304 303 304 307 307 307 308 306 304 304 302 301 301 300 300 301 303 305 306 306
300 303 306 306 305 306 305 305 305 303 305 311 310 307 309 312 311 310 312 312 310 312 312 311 312 313 312 309 307 306 305 305 307 308 305 304 307 307 307 310 309 308 308 307 306 304 303 303 299 296 297 295 297 298 295 299 304 303 301 304 303 300 304 307 302 300 302 305 306 305 305 307 306 307 309 308 307 306 305 304 303 302 302 303 306 307 307 308
300 302 305 305 305 306 305 305 305 303 308 312 308 307 310 311 310 310 312 310 307 309 311 312 312 311 310 311 310 308 307 306 306 309 308 306 308 309 310 311 307 307 308 306 305 306 304 305 301 297 299 296 293 295 296 296 299 302 303 303 300 299 303 305 304 303 303 305 307 305 304 305 306 307 309 309 309 309 308 309 307 305 305 306 308 309 309 309
301 302 304 305 305 305 305 305 303 304 310 310 307 309 307 306 309 309 310 309 307 310 310 309 310 310 309 309 310 308 307 308 308 309 309 308 310 312 313 311 305 304 306 304 303 305 304 306 303 296 298 298 293 297 301 298 296 300 302 299 300 304 306 304 304 305 305 306 307 306 304 303 305 307 308 308 310 309 308 311 311 309 309 309 309 309 308 308
301 303 306 305 304 305 305 304 303 307 311 307 307 309 304 305 311 309 307 308 308 309 310 310 310 308 308 308 309 309 306 308 309 308 307 307 310 311 309 308 306 304 304 303 303 304 303 305 305 297 296 298 296 300 304 303 299 297 299 299 299 303 306 304 303 304 306 306 305 306 305 305 307 308 307 308 309 308 308 310 311 310 311 310 308 308 308 308
301 304 307 304 303 306 305 303 306 310 310 305 307 308 302 305 311 307 305 308 308 307 308 310 309 306 308 307 307 308 305 306 308 307 306 306 308 310 307 308 310 306 304 303 303 304 302 303 305 301 297 298 301 303 304 305 303 301 303 303 301 301 302 303 303 302 304 305 304 305 305 306 308 308 308 307 307 308 308 308 310 311 310 308 307 307 307 307
300 304 306 301 301 305 305 305 308 308 307 304 304 305 303 306 310 308 305 306 307 306 305 308 308 307 309 307 306 307 305 305 306 306 306 305 306 309 307 307 311 307 305 306 303 303 303 302 304 303 301 303 304 301 298 300 301 301 304 304 304 304 303 305 305 302 301 302 303 304 305 307 308 308 307 307 307 308 306 306 308 309 308 307 306 305 305 305
301 304 304 300 301 304 306 309 304 301 304 305 304 305 305 307 308 307 307 306 306 307 305 306 308 308 309 308 308 308 306 306 306 306 307 307 307 307 307 304 308 306 306 309 307 303 303 302 302 304 305 304 299 294 292 294 294 297 300 301 302 304 305 307 307 304 301 301 300 301 303 307 308 308 308 307 307 305 302 302 306 307 307 307 306 304 303 303
300 302 302 301 303 304 306 307 303 301 305 305 302 303 304 306 307 306 307 307 306 307 307 307 307 307 308 308 307 308 307 306 308 309 307 307 307 306 304 302 304 306 307 308 307 303 303 304 303 305 306 301 295 293 292 292 294 299 301 299 300 303 304 305 305 305 304 302 302 302 303 306 309 311 311 309 308 306 303 302 304 307 308 309 309 306 303 302
299 300 301 302 303 304 305 306 306 306 307 304 303 304 304 304 306 305 306 308 308 308 308 308 308 306 307 306 305 307 308 306 309 310 306 306 307 303 300 300 301 304 307 308 307 307 307 308 306 306 309 308 303 301 300 298 298 302 302 299 299 300 301 301 302 302 303 304 306 306 305 307 309 311 310 308 307 308 307 306 304 307 311 312 312 309 304 302
300 301 302 301 302 304 304 304 306 307 306 305 305 305 304 303 305 305 305 308 309 308 307 307 307 306 306 305 304 305 306 305 308 309 305 304 306 302 301 302 301 304 307 305 305 306 307 308 307 310 314 314 311 308 307 305 302 301 302 300 299 299 300 302 303 303 304 306 307 305 306 307 309 310 309 308 308 306 306 307 305 305 308 308 309 311 309 305
301 302 302 302 302 303 301 299 302 305 305 306 306 304 302 303 304 304 304 306 307 306 307 306 306 306 305 304 305 305 306 305 305 306 304 304 307 305 301 300 301 302 304 304 304 304 305 305 306 310 314 313 313 311 308 306 304 304 305 303 300 299 300 302 304 304 305 306 305 305 306 307 307 307 307 307 308 307 306 306 305 305 308 309 308 309 308 305
300 298 300 302 301 302 302 300 302 304 303 304 304 302 301 303 303 303 304 305 305 305 307 306 305 305 305 304 305 306 306 305 304 304 303 303 306 307 299 296 299 300 301 304 304 303 303 305 305 308 310 310 310 311 310 307 307 307 306 305 302 299 299 302 304 305 305 305 305 306 306 306 306 306 306 306 306 307 306 305 305 305 306 308 307 306 304 303
299 298 299 300 299 300 302 301 301 303 303 302 303 302 303 304 303 303 303 304 304 304 305 305 305 306 306 306 306 306 305 305 305 305 304 303 305 307 302 299 299 299 300 302 301 301 303 305 305 306 307 307 306 307 307 305 305 306 305 305 304 301 299 302 304 305 305 305 307 307 307 307 306 305 305 306 306 306 306 305 305 305 305 305 305 305 305 304
299 299 299 299 299 300 300 300 301 303 303 303 303 303 304 305 305 305 304 303 305 304 304 305 306 307 308 307 306 306 305 305 305 305 306 306 305 305 305 304 301 297 299 300 301 302 303 305 305 304 305 306 304 304 304 302 302 303 302 303 303 302 300 302 304 305 305 306 307 307 308 308 307 305 305 306 306 306 306 305 304 305 305 305 305 305 305 304
297 299 299 298 299 299 299 300 301 302 302 303 303 303 303 304 305 305 303 303 305 305 304 305 306 307 308 308 307 306 306 306 306 306 307 308 306 304 305 307 305 300 299 301 302 302 303 306 307 303 303 305 305 305 304 302 301 303 303 302 301 302 301 301 302 304 304 305 306 306 307 307 306 306 306 305 305 305 305 305 304 304 305 305 305 305 306 305
296 297 297 298 298 299 299 300 301 301 302 301 302 303 302 303 304 304 303 304 305 305 304 305 306 306 306 306 306 306 305 306 306 306 306 306 306 305 305 306 307 305 303 303 303 302 302 304 304 303 304 306 306 307 307 304 302 303 303 301 300 302 304 303 302 303 303 305 305 305 305 305 305 306 306 305 304 304 305 305 305 305 305 305 304 305 306 307
295 296 296 297 298 298 298 300 300 301 301 301 302 302 301 302 304 303 303 304 304 304 304 304 304 304 304 305 305 305 304 304 304 304 305 304 304 304 304 305 306 307 308 306 303 302 302 303 304 304 306 306 306 307 307 305 305 305 306 306 302 301 303 303 302 302 303 304 305 305 305 305 306 306 306 305 305 305 305 306 306 306 306 305 303 304 306 306
Wind_Speed
15 15 15 15 15 15 14 13 12 11 11 12 12 11 10 9 8 7 5 4 5 7 9 10 12 13 13 14 12 11 8 5 4 3 3 2 4 5 5 4 3 3 3 1 1 2 3 4 3 1 3 2 1 0 1 2 1 2 2 2 2 2 1 3 5 2 1 1 6 8 9 9 5 5 4 1 6 10 7 8 10 10 14 16 12 7 6 4
15 15 15 15 15 15 14 14 13 11 11 10 11 11 11 10 9 9 8 7 7 8 10 11 13 14 14 15 13 12 8 5 6 4 1 3 6 6 4 3 3 4 3 1 1 3 4 3 3 2 2 2 1 0 1 1 1 2 1 2 2 1 0 0 1 1 1 1 5 7 7 7 3 4 6 5 7 8 10 12 11 14 17 20 20 18 14 9
15 15 15 15 15 15 14 14 14 13 11 10 10 10 11 11 10 10 10 12 11 7 7 9 11 13 14 14 11 10 5 4 5 3 2 5 6 6 3 1 3 4 3 2 2 3 3 3 4 3 1 1 1 1 2 0 2 1 1 3 1 1 1 2 2 2 2 2 3 5 4 5 3 2 4 5 6 7 12 12 10 14 18 18 18 19 18 16
16 16 16 15 15 16 15 15 14 14 13 11 10 9 10 10 11 10 11 14 14 8 5 6 6 8 9 9 7 5 3 3 2 0 3 6 6 5 3 1 3 4 3 3 2 2 2 3 3 1 1 2 1 1 2 1 1 1 1 3 2 1 1 2 1 2 2 3 1 4 4 5 4 1 3 5 6 8 13 13 11 14 15 11 8 11 15 17
17 17 16 16 16 16 16 16 15 14 13 12 11 10 9 10 10 10 11 13 14 9 6 5 3 2 3 4 4 4 3 1 1 1 4 6 6 4 3 2 5 5 5 3 2 3 3 3 2 1 1 2 2 2 1 3 1 2 1 2 2 2 0 2 1 1 1 2 1 4 4 3 1 3 8 7 9 7 3 5 9 10 8 4 1 5 8 12
18 17 17 17 17 16 16 16 16 16 14 13 12 11 10 9 10 10 10 12 14 9 5 5 4 3 2 3 3 4 3 1 1 2 5 7 6 4 2 2 6 6 6 4 4 4 3 2 2 2 0 1 2 1 1 2 2 1 1 0 0 2 0 1 1 1 1 2 4 4 2 1 2 6 7 11 17 9 3 3 1 3 3 4 2 4 6 10
18 18 18 17 17 17 16 16 17 17 16 14 13 12 11 10 9 9 10 10 13 11 7 6 6 5 3 3 3 1 2 1 1 3 6 7 5 4 2 3 6 7 6 4 5 4 2 2 2 2 1 1 2 1 1 1 1 1 1 2 2 1 0 1 0 1 2 3 3 1 1 3 6 5 1 9 21 16 8 5 4 6 5 5 7 8 10 11
18 19 19 18 18 17 17 17 17 17 17 16 14 13 12 11 10 9 9 9 11 12 8 6 6 6 2 4 3 0 1 1 1 4 7 7 3 3 1 3 5 7 7 6 5 3 2 2 2 2 2 1 1 2 1 1 2 2 2 4 3 1 0 1 1 2 3 4 1 2 5 5 6 2 2 13 17 12 11 9 9 9 8 9 11 12 12 12
18 19 19 19 19 19 18 18 18 18 18 17 14 13 13 11 10 9 9 9 10 11 9 6 6 4 3 4 2 1 0 1 2 5 7 6 2 2 1 3 6 7 6 6 5 4 3 2 3 3 2 1 2 2 1 1 2 2 4 5 4 2 1 0 1 2 3 3 2 5 6 5 4 1 6 16 10 2 4 6 6 6 8 9 10 11 11 11
18 18 19 19 20 20 19 19 19 19 19 18 15 14 14 12 10 9 9 8 9 9 8 5 5 2 4 3 1 1 1 1 3 5 7 4 1 2 1 2 5 8 6 5 6 6 4 2 3 2 2 3 2 1 1 1 0 3 6 5 4 2 0 2 3 2 2 3 3 5 6 3 3 1 7 7 1 2 3 5 5 4 8 9 8 9 8 9
20 20 19 19 20 20 20 20 20 20 20 19 17 15 14 13 11 9 9 8 8 8 7 4 3 1 3 2 2 1 1 0 4 5 7 4 1 3 3 2 2 7 6 4 7 7 3 3 7 3 0 2 3 2 1 0 1 4 6 6 4 2 2 1 3 1 1 3 3 4 7 3 4 5 9 2 2 1 5 7 5 5 8 8 8 8 6 8
22 22 21 20 20 21 21 21 21 21 22 21 19 16 15 14 11 9 8 8 8 8 6 3 2 0 1 1 1 1 2 0 4 4 7 4 3 3 4 4 2 4 6 5 5 5 4 7 8 3 1 2 3 2 2 2 1 3 2 3 3 5 2 3 1 1 2 1 2 3 6 3 6 9 8 1 1 3 5 8 8 7 8 7 7 6 5 7
24 23 23 22 21 22 22 21 22 22 23 22 20 18 15 13 10 8 7 7 8 8 6 3 2 1 1 1 1 2 1 1 4 3 6 3 4 0 4 3 4 3 1 4 5 6 8 8 6 4 1 1 2 1 4 3 1 2 3 2 1 4 2 5 4 3 2 1 2 3 5 3 6 10 5 2 2 5 6 8 9 9 7 6 5 5 6 6
25 25 24 24 23 23 23 22 22 22 23 23 21 18 14 12 9 8 7 7 7 7 5 3 2 2 2 1 2 2 1 1 4 5 6 5 2 2 3 4 5 6 6 6 8 9 9 8 7 7 2 2 3 3 4 2 1 1 2 1 0 2 1 4 5 5 1 1 5 3 5 6 4 5 2 3 2 4 8 11 10 9 6 6 5 4 6 5
25 25 25 25 24 24 24 23 22 23 24 23 22 17 13 10 7 7 6 6 6 5 3 3 3 2 1 0 3 1 2 1 4 9 8 9 3 2 1 4 7 8 10 10 10 10 7 6 5 5 2 1 2 3 2 1 1 0 1 2 1 2 0 3 4 6 3 0 5 4 5 7 8 5 3 4 2 4 8 12 10 9 7 6 4 4 5 5
25 25 25 25 24 24 25 24 23 23 24 23 21 16 12 8 6 5 5 4 4 3 2 3 4 3 1 1 2 0 2 1 5 9 8 9 5 1 1 5 6 6 7 8 9 7 5 5 3 1 2 1 2 2 2 2 1 0 2 1 0 1 2 1 2 4 4 3 3 2 4 7 6 3 4 4 1 4 9 11 10 9 7 5 4 4 5 5
26 26 26 25 24 24 24 25 24 24 25 23 20 15 10 6 3 2 2 3 2 1 2 2 3 2 1 1 2 1 2 2 6 8 6 8 6 3 2 4 2 3 5 5 4 3 4 4 0 1 1 1 1 1 3 3 2 1 0 1 0 1 2 2 1 2 4 2 1 1 5 11 11 6 5 6 3 5 9 10 10 8 6 4 4 5 4 4
26 26 26 26 24 23 24 25 24 25 26 24 20 13 5 2 1 2 3 3 1 2 2 1 1 1 0 1 0 3 5 7 7 5 5 8 5 3 2 3 1 2 3 1 1 1 3 1 1 1 1 2 1 2 3 2 1 1 1 1 1 1 2 3 1 3 6 2 3 4 6 14 16 12 12 9 2 5 10 9 9 8 7 5 4 4 4 4
26 26 26 26 25 22 23 23 22 24 26 24 18 8 2 3 2 3 5 5 0 2 1 0 1 2 1 1 2 6 8 7 5 4 5 9 5 1 3 3 2 1 1 1 1 2 2 0 1 2 2 2 0 2 2 2 1 1 1 1 0 2 3 3 1 4 5 5 6 6 7 13 16 14 15 10 4 6 10 9 7 7 6 4 4 3 3 3
26 26 26 27 25 22 21 21 20 22 24 22 14 4 2 3 1 1 5 5 1 0 1 1 1 2 2 1 5 9 7 2 1 4 8 11 5 1 1 2 1 0 0 1 0 2 1 2 3 2 1 1 1 0 1 2 2 2 3 1 1 2 3 1 2 2 2 5 5 4 8 14 16 17 16 9 4 6 10 9 7 6 4 3 3 3 3 3
27 27 26 26 25 22 20 18 18 20 21 19 13 7 3 2 2 1 5 3 2 1 2 1 1 3 3 3 6 7 3 0 1 3 10 12 4 2 1 1 1 2 1 0 2 1 1 4 2 1 2 3 3 1 1 1 2 2 2 0 1 2 3 1 2 1 2 4 3 1 9 15 16 16 12 6 6 8 9 8 7 6 4 3 2 3 3 2
27 27 26 25 24 22 18 14 16 17 18 21 19 10 3 2 3 2 2 3 1 1 0 0 1 2 3 3 4 4 1 0 0 2 11 12 2 1 1 1 2 2 1 0 2 1 2 2 2 3 2 3 4 1 1 1 1 0 2 0 1 1 3 1 2 1 1 3 4 5 11 15 14 12 8 4 6 6 4 4 5 4 4 3 2 2 3 3
27 28 27 26 24 22 15 11 14 15 18 23 20 9 3 3 4 2 1 3 2 0 1 1 1 0 1 0 3 4 0 1 0 1 12 11 1 1 1 1 1 0 1 1 3 2 2 1 3 2 1 2 2 2 1 2 1 0 1 1 2 1 2 1 2 0 1 1 5 9 9 11 9 5 2 0 3 4 4 5 6 5 6 5 2 3 3 3
26 27 28 27 24 21 12 6 13 16 15 18 18 14 10 5 3 1 2 2 2 1 1 1 1 0 1 1 4 4 1 1 1 2 11 8 1 1 1 1 1 2 1 0 2 3 1 2 2 2 0 0 1 2 1 2 1 0 1 1 1 1 1 2 3 4 3 3 3 8 8 5 2 2 2 2 1 4 2 4 6 5 5 4 4 4 4 4
25 26 27 27 26 21 8 3 14 17 10 9 13 18 15 7 2 1 2 1 1 1 0 1 1 1 1 1 4 3 1 1 1 3 7 6 1 1 1 1 1 2 1 1 1 2 1 2 1 3 1 1 1 1 2 2 1 1 2 0 1 2 2 2 5 6 3 1 0 4 6 4 0 2 4 1 2 4 1 3 6 4 3 3 4 4 4 3
23 24 26 26 26 22 6 1 14 16 5 5 9 18 17 9 3 3 1 1 2 1 1 1 0 1 1 2 4 1 2 0 1 3 4 4 2 1 1 1 1 0 1 1 0 0 2 1 1 2 2 2 0 2 1 1 2 1 0 1 2 3 2 1 3 4 3 3 1 1 4 6 3 3 3 2 4 6 4 5 6 5 4 4 4 4 3 3
21 22 24 24 25 22 8 4 13 10 3 4 13 19 17 8 2 3 1 1 2 0 1 1 1 1 1 2 3 0 1 1 1 1 2 4 2 1 1 1 1 1 1 1 1 1 3 3 2 1 2 2 2 2 1 0 3 0 1 0 2 2 1 1 1 1 2 4 1 1 1 5 6 4 0 2 5 5 6 8 8 6 6 6 5 4 3 3
20 20 21 22 22 20 12 10 10 5 3 11 17 19 15 5 2 2 1 1 1 1 2 1 1 1 1 2 1 1 1 2 0 1 0 3 3 1 1 1 2 2 1 2 3 0 2 3 5 4 3 3 2 1 1 1 2 1 1 0 2 2 1 2 1 2 1 3 2 2 1 4 6 2 1 1 4 5 5 8 9 9 8 7 6 5 3 3
21 18 18 20 19 16 14 10 4 3 10 16 18 19 11 1 3 1 1 1 1 2 2 1 1 1 2 1 1 2 0 1 1 1 1 1 3 2 0 1 3 4 2 1 1 1 1 1 2 2 2 2 2 3 1 1 0 3 4 3 4 3 2 2 1 1 1 3 3 2 2 4 5 2 1 0 2 3 4 4 6 7 7 6 6 5 3 2
21 17 15 18 18 17 14 7 4 10 15 16 17 17 8 1 2 0 1 2 1 1 0 0 0 2 4 1 1 2 1 1 2 3 1 1 1 4 2 1 2 3 2 2 3 2 1 1 2 2 1 1 4 4 2 1 3 5 6 2 2 2 1 1 0 0 2 3 1 1 2 3 4 3 2 1 1 1 1 2 3 5 6 6 5 5 3 2
21 16 12 14 16 16 12 6 9 14 13 14 16 12 2 1 0 2 2 2 1 1 1 2 2 2 3 1 1 2 1 2 3 2 1 1 1 2 2 2 1 1 1 1 2 1 1 1 1 1 2 1 3 4 3 1 2 3 2 1 1 1 1 1 1 1 4 3 2 1 2 3 4 3 0 1 2 3 4 4 3 4 7 7 6 5 3 1
21 15 10 10 11 12 10 9 15 15 11 14 13 5 1 1 1 3 3 3 1 1 1 1 2 2 3 1 1 2 1 1 3 2 1 1 0 1 1 2 2 2 3 1 1 1 2 2 1 1 0 2 2 2 2 0 1 2 2 2 2 2 1 3 2 2 4 2 2 0 2 3 7 7 6 7 8 7 6 5 5 5 5 6 5 3 2 1
21 14 7 6 8 11 12 13 14 12 12 12 7 2 2 1 2 2 2 3 1 1 1 1 1 1 2 3 1 1 1 1 2 2 0 1 1 1 0 0 1 2 2 0 0 1 1 1 2 2 1 0 3 2 1 1 3 4 3 2 3 2 1 3 2 2 4 0 2 1 2 3 6 6 7 11 9 5 3 5 5 5 6 5 3 2 3 3
20 12 5 5 8 11 13 13 11 10 11 8 2 1 2 2 2 0 2 3 2 1 0 0 1 1 1 1 2 2 1 0 2 2 1 0 1 1 1 1 2 0 1 1 1 1 4 3 2 2 1 1 2 2 3 1 3 3 0 1 2 2 2 4 2 3 4 1 1 1 2 4 3 2 3 7 7 5 4 5 4 6 7 5 4 4 5 6
16 7 5 8 10 11 11 10 8 9 8 3 2 1 2 2 2 1 2 2 1 1 0 0 1 1 0 1 1 1 1 0 2 1 1 0 1 2 0 1 3 1 2 2 2 1 3 4 1 1 1 1 2 1 3 2 2 2 0 0 2 1 1 1 1 1 1 2 2 3 3 4 3 6 6 4 5 6 7 6 6 7 6 4 5 6 5 6
13 6 5 9 11 11 10 7 6 7 4 1 2 2 3 2 1 2 1 1 1 2 2 1 1 1 1 1 1 1 1 1 2 2 0 1 2 2 1 0 2 2 1 2 2 1 2 2 2 0 1 1 2 2 2 3 0 2 2 2 1 2 2 2 1 1 0 4 3 2 4 5 4 7 5 1 4 5 3 3 5 5 4 4 5 6 5 6
16 7 3 8 13 12 8 6 4 3 2 2 2 2 2 1 2 2 1 2 1 1 2 2 2 1 2 2 1 1 1 1 1 2 1 1 2 2 2 1 1 1 2 2 1 0 2 1 2 0 1 2 1 2 2 2 2 1 1 1 0 1 1 1 2 0 1 5 2 1 4 4 3 3 2 3 5 3 1 1 2 3 3 5 7 6 6 7
16 8 3 5 13 12 7 5 4 3 2 2 1 2 2 2 1 0 1 1 1 1 1 2 2 1 1 2 1 0 1 1 1 1 1 1 1 2 2 0 2 1 2 2 2 1 1 3 0 1 0 2 1 3 3 2 1 2 2 1 1 2 1 1 2 2 3 4 2 2 2 3 4 4 2 4 4 3 2 1 2 3 4 6 7 7 7 7
10 4 2 3 11 11 6 2 3 3 2 2 2 1 1 2 2 0 1 0 1 1 2 3 2 1 1 1 1 0 1 1 0 0 1 1 1 2 2 1 1 0 1 1 0 1 1 2 1 1 1 1 1 3 3 3 2 1 2 1 1 2 2 1 1 1 3 3 2 2 1 3 6 5 3 6 5 5 4 2 3 4 4 5 5 6 6 7
6 1 1 3 9 9 4 1 2 2 1 1 2 1 0 2 2 0 0 1 1 1 2 1 0 1 2 1 1 1 1 1 1 1 1 1 1 2 2 1 2 2 2 2 2 1 1 1 2 1 1 3 2 3 3 2 3 3 3 3 3 2 1 2 2 0 1 3 2 3 3 5 5 3 5 7 7 5 3 3 5 4 4 5 5 5 6 7
4 0 0 5 9 7 3 1 2 1 1 1 1 2 1 1 1 1 1 1 1 1 1 1 1 2 1 1 2 1 0 1 1 2 3 2 2 3 1 1 3 3 1 2 3 1 1 1 2 0 2 4 1 1 1 1 1 1 3 3 3 3 2 3 5 1 0 3 2 2 4 6 5 1 4 6 5 3 1 3 5 5 5 6 5 6 6 7
2 0 3 8 9 6 2 2 1 1 1 1 1 2 1 0 0 0 1 0 1 2 0 1 2 2 2 2 2 1 1 2 1 2 3 4 4 3 1 1 1 2 2 1 1 2 2 1 2 4 4 2 1 2 1 1 1 1 2 1 1 3 4 6 6 2 1 1 0 1 3 6 5 2 3 4 3 1 1 3 6 6 6 6 5 6 6 7
1 3 6 10 10 6 2 1 0 0 1 1 1 1 1 1 1 1 0 0 2 1 0 1 2 2 2 1 1 1 2 3 4 4 3 3 3 1 2 0 2 0 2 0 1 1 2 1 2 5 3 0 2 2 1 1 1 3 3 2 3 3 2 3 3 0 2 2 2 2 4 6 5 2 2 3 2 3 3 5 7 7 6 6 6 6 6 6
3 4 5 9 10 5 0 1 1 1 1 2 2 1 1 1 2 2 2 2 1 1 1 2 2 2 1 0 0 2 3 3 5 5 2 1 0 3 3 1 3 1 1 1 1 0 1 1 2 3 4 3 2 2 2 1 2 3 3 3 5 4 2 2 0 1 3 4 5 5 5 7 4 1 2 3 2 5 6 5 6 7 6 5 5 4 4 5
4 2 3 6 9 5 0 1 1 2 1 1 2 2 2 2 2 2 2 3 2 2 2 1 1 1 0 1 1 3 4 3 3 2 1 0 1 1 1 1 2 1 1 2 2 0 1 2 2 3 6 6 5 4 2 0 1 2 2 3 6 7 5 3 2 4 5 5 5 5 7 10 8 4 6 7 5 7 9 5 5 7 7 6 5 5 4 4
2 1 2 3 5 4 2 1 1 1 1 0 1 1 1 3 2 0 2 3 1 2 2 1 1 2 1 2 3 4 5 5 3 2 3 1 3 1 1 1 2 2 1 1 1 0 1 2 3 6 9 8 8 7 2 2 2 4 3 5 7 9 10 6 3 5 5 3 4 7 10 14 16 13 11 11 10 8 8 7 6 6 7 6 5 6 4 5
1 1 1 2 2 2 2 2 2 1 1 1 1 0 1 3 1 0 2 2 0 0 2 1 2 3 3 3 4 5 4 3 2 2 1 2 4 2 1 1 2 2 2 1 0 1 0 4 5 8 12 11 11 12 7 5 8 10 7 7 8 9 11 10 9 8 5 2 6 10 13 15 16 16 16 17 16 10 7 9 8 7 7 6 5 6 6 6
1 0 1 2 2 1 1 2 2 3 2 1 1 1 1 3 2 1 1 1 0 1 3 1 2 4 5 3 3 4 1 0 1 2 3 4 4 2 1 1 0 2 1 1 1 2 1 5 4 6 11 12 11 12 7 4 8 10 9 9 8 11 14 14 14 12 8 7 12 12 15 16 13 14 18 19 18 13 8 8 6 5 6 5 5 7 8 8
2 1 2 3 2 1 1 1 1 2 2 0 1 2 2 4 6 4 1 1 3 2 3 4 2 2 4 3 3 5 3 1 3 4 2 1 2 2 2 2 0 1 1 1 1 1 2 4 3 4 8 10 9 9 6 5 9 9 10 12 9 10 15 15 15 15 15 17 18 15 19 18 10 10 16 18 16 12 9 8 6 7 8 7 8 10 11 10
2 2 2 3 3 3 3 2 2 3 2 2 3 3 3 5 6 3 1 3 5 2 2 5 4 3 4 3 3 5 2 2 7 9 4 3 4 2 3 3 1 1 1 2 1 2 3 1 1 2 5 8 7 7 5 6 8 9 13 13 7 7 11 13 13 14 15 16 16 15 18 16 9 10 17 18 15 12 12 14 12 10 9 9 10 11 11 11
4 4 3 3 4 2 3 3 2 3 4 4 5 3 4 5 5 3 2 5 8 7 4 6 6 4 5 5 5 7 5 4 11 14 8 7 8 3 3 3 2 2 3 3 2 3 4 2 1 1 6 8 4 5 5 3 5 11 14 12 8 8 9 11 12 13 13 14 13 13 14 13 12 13 15 16 15 15 16 16 13 10 8 7 8 10 11 11
5 5 3 2 3 3 3 2 3 4 4 4 6 6 5 4 3 2 3 4 7 8 6 5 5 4 6 7 7 8 7 6 11 12 8 8 9 6 4 4 4 4 4 4 2 2 4 3 2 2 7 8 2 2 3 3 5 11 10 10 14 14 13 12 12 13 15 14 11 12 12 10 8 9 10 14 16 16 14 11 9 9 7 6 7 10 11 12
Wind_Direction
21 19 15 10 6 5 6 9 12 15 15 14 15 13 7 4 9 13 6 331 291 272 262 254 250 250 255 264 276 295 303 245 198 140 147 265 327 333 316 291 263 235 215 211 302 211 167 174 190 151 161 166 2 81 115 47 18 230 211 240 241 197 195 176 177 177 3 135 161 175 192 197 181 169 186 205 226 234 240 242 237 235 244 244 247 249 229 238
20 19 17 13 7 3 1 1 2 5 7 8 7 8 6 -0 359 1 0 347 318 284 266 261 258 255 259 265 275 291 288 224 202 176 90 346 345 337 312 277 233 213 200 193 244 203 188 192 181 168 186 195 24 120 195 6 307 234 180 256 247 190 128 11 118 102 345 21 142 166 199 208 190 153 167 217 226 216 241 248 234 242 249 244 242 238 231 233
18 17 17 15 12 6 2 359 358 357 356 358 359 -0 360 357 354 352 354 354 343 316 279 272 266 256 257 263 274 286 266 190 189 179 15 350 345 334 314 268 204 200 200 217 243 203 201 185 168 186 216 210 60 161 200 18 297 215 220 250 225 69 81 35 5 58 344 358 123 153 180 217 236 118 160 228 243 214 231 237 218 231 243 241 235 228 224 224
16 13 12 11 11 9 5 0 357 354 350 348 348 351 352 352 349 347 350 355 354 345 327 307 280 260 253 255 267 260 202 183 188 253 352 348 345 343 334 239 186 196 197 218 232 183 172 153 149 183 223 210 86 190 210 45 323 160 227 270 50 14 105 90 348 35 358 352 72 128 134 218 237 175 206 231 248 235 232 230 221 229 240 241 226 219 219 220
14 12 9 7 6 6 4 2 357 353 349 344 340 339 343 344 343 343 344 353 358 356 359 4 359 303 256 243 240 197 199 209 130 328 339 345 345 349 334 206 181 188 192 206 186 151 157 152 136 104 235 225 151 199 202 58 352 171 193 328 31 306 120 96 332 34 42 38 92 148 150 208 177 215 228 227 240 244 235 229 235 246 265 291 247 226 223 223
12 10 7 5 3 1 0 360 357 353 349 343 338 333 332 334 337 339 338 347 357 356 347 359 3 334 283 232 204 193 254 315 101 303 335 345 342 354 347 189 181 181 184 189 163 158 152 145 198 186 211 244 186 202 101 70 300 234 119 71 145 296 16 90 0 75 145 154 168 173 184 199 183 235 225 223 238 242 69 81 243 280 317 347 306 248 233 230
9 8 6 3 0 358 356 355 355 353 349 343 337 332 326 326 326 332 334 338 351 354 334 328 335 323 282 210 176 160 293 300 350 322 340 341 338 -0 6 183 185 182 184 181 169 175 159 170 215 192 180 266 201 164 74 105 238 263 180 154 191 270 316 22 33 141 195 212 197 159 270 209 211 243 189 228 241 245 250 252 271 286 279 272 267 252 243 241
6 5 4 2 359 356 354 352 352 351 349 343 337 332 325 320 318 322 327 330 343 349 339 327 335 330 260 182 181 273 297 228 337 341 343 340 342 6 21 181 189 191 199 201 191 180 173 203 192 184 208 285 197 153 9 202 175 230 188 156 179 208 116 42 89 176 209 234 242 214 236 222 218 259 299 250 248 244 254 270 278 282 277 261 257 255 250 249
3 2 2 1 358 355 352 351 349 348 349 345 338 332 326 318 312 313 318 323 333 342 343 335 344 344 165 157 206 265 228 175 334 341 346 346 335 353 354 202 208 207 206 204 202 186 191 212 179 194 187 96 176 139 21 238 202 184 143 148 160 143 69 115 174 188 213 223 192 218 243 232 204 320 259 249 255 268 254 266 267 272 276 261 254 256 252 252
1 359 359 359 358 355 351 349 348 346 346 345 340 333 327 318 306 304 309 315 322 335 339 335 355 22 163 164 251 301 98 139 334 342 352 356 0 2 352 236 219 209 207 204 194 181 194 196 140 158 116 109 160 111 77 234 246 114 121 116 113 117 172 210 208 178 203 201 193 241 271 244 163 236 252 236 215 358 288 261 244 248 271 271 266 263 255 254
358 357 357 356 356 355 351 348 346 345 344 344 341 334 327 317 303 296 302 309 313 325 328 318 351 39 171 195 258 351 129 141 346 353 356 354 121 44 44 65 193 202 207 205 197 199 216 161 139 133 63 148 147 109 99 214 63 110 125 112 106 207 159 156 217 170 266 186 176 264 278 249 144 226 251 233 103 319 310 292 279 274 283 287 281 278 266 258
358 356 355 354 355 354 352 348 345 344 344 344 340 334 327 315 300 290 294 305 306 315 317 294 306 316 169 212 235 89 148 33 -0 4 357 341 180 59 55 76 82 193 219 224 210 208 188 159 145 114 354 172 150 131 133 136 69 110 166 143 146 208 145 37 320 315 315 164 138 274 272 234 171 225 249 65 25 330 310 290 296 297 296 296 288 288 275 269
359 356 354 353 353 353 351 348 345 344 344 343 340 334 325 313 299 284 287 301 302 309 310 270 259 196 175 283 167 148 165 -0 6 359 355 356 191 112 48 75 66 70 217 210 183 152 148 154 134 95 69 138 116 127 129 118 89 139 234 251 172 205 153 25 350 302 297 26 333 282 280 277 189 219 228 81 354 333 306 292 304 301 297 291 280 281 276 277
0 357 354 352 352 352 350 348 345 343 343 342 339 334 324 313 297 279 281 296 297 301 302 243 210 180 191 308 153 146 322 315 2 3 9 25 159 188 58 75 83 73 76 114 138 129 133 132 111 108 85 21 98 137 139 132 193 183 233 220 25 257 150 53 9 330 334 89 327 304 267 286 259 229 158 89 33 9 314 297 298 291 286 278 266 268 278 281
2 358 356 353 351 351 350 348 345 344 344 342 340 335 324 314 294 278 281 293 298 295 286 207 198 189 208 87 153 105 352 225 350 2 9 18 42 172 98 105 106 92 85 93 109 113 117 111 99 105 75 13 149 163 174 168 171 1 265 192 116 287 192 75 41 9 26 289 323 314 266 283 294 298 84 98 60 25 306 291 290 284 276 273 276 285 288 291
5 1 356 353 351 351 349 348 346 344 345 344 343 336 323 315 288 280 289 294 300 276 232 197 198 213 268 35 158 218 18 153 345 353 2 8 18 68 161 152 119 101 103 97 102 100 78 71 62 65 94 177 210 217 219 214 188 89 295 247 141 270 317 28 101 35 357 290 314 292 275 290 294 327 94 147 309 335 294 284 283 278 273 275 288 294 291 297
6 3 358 354 350 351 350 348 348 346 347 348 346 338 323 318 296 297 329 320 322 176 180 191 183 199 252 79 161 264 349 326 340 346 353 0 10 47 130 163 122 107 121 104 108 86 31 51 120 234 85 135 217 243 231 242 231 173 279 271 180 239 311 325 156 38 348 298 312 232 255 270 267 274 250 221 263 304 278 275 280 277 273 271 278 283 287 298
4 3 1 356 351 351 350 349 349 348 349 352 348 342 336 356 61 76 37 3 349 156 150 144 171 210 180 89 271 331 318 309 334 346 347 356 3 44 90 139 130 136 130 78 93 42 6 36 249 237 158 194 183 219 231 263 242 193 230 240 331 218 237 291 270 12 1 339 278 259 251 267 269 271 269 254 221 261 261 265 275 275 272 268 270 277 292 302
2 1 0 359 355 353 350 350 352 351 353 353 349 352 60 62 91 106 32 19 36 210 229 88 275 279 311 35 320 324 315 304 333 6 7 356 344 45 62 82 111 140 190 240 99 40 349 1 207 231 214 208 207 258 272 334 24 137 153 174 310 275 256 280 341 29 359 314 272 257 256 275 281 278 277 269 195 225 257 265 264 260 258 262 271 277 297 305
1 359 358 358 358 355 352 352 353 356 359 358 354 10 72 28 50 120 4 10 87 168 345 38 315 298 323 339 323 331 327 295 13 26 14 359 346 159 52 39 95 105 114 247 352 51 323 243 215 233 234 130 93 0 311 352 41 105 117 126 170 284 289 303 58 39 350 303 271 244 268 277 279 275 275 268 209 232 254 251 244 239 237 252 280 302 314 316
0 359 357 355 358 358 355 354 358 5 11 18 33 57 64 9 351 342 336 332 141 115 7 30 266 284 299 299 325 347 2 161 45 28 10 3 8 170 257 30 174 216 94 302 284 89 241 253 228 65 57 92 103 96 336 20 38 92 134 180 186 235 278 72 78 38 18 331 281 276 294 280 274 277 283 270 226 240 245 232 233 233 237 256 277 300 317 330
359 358 357 354 356 358 357 1 8 11 20 34 51 69 75 21 352 335 311 290 197 145 84 89 215 285 303 289 334 359 108 322 334 38 4 359 15 170 332 97 195 233 73 172 239 215 238 237 110 82 90 103 100 70 351 68 62 73 130 271 282 252 279 295 88 100 12 317 296 335 314 288 285 291 300 278 231 248 264 250 257 258 260 260 263 295 320 330
357 356 357 355 354 356 359 14 17 16 27 39 50 54 14 337 320 300 263 281 291 202 163 106 123 0 349 21 3 353 194 -0 287 29 360 353 38 29 318 161 166 187 116 208 218 243 256 174 96 108 169 130 103 63 63 118 128 272 134 253 285 16 306 273 81 305 233 248 298 312 297 281 295 296 275 180 230 263 287 267 259 255 258 268 297 299 290 303
357 355 356 355 353 354 357 25 23 20 30 42 45 29 1 323 302 294 255 269 281 311 73 89 147 129 48 59 7 351 85 63 292 338 356 356 134 270 313 96 96 194 202 226 207 228 258 53 94 139 276 352 129 102 147 207 222 220 223 245 246 132 191 272 340 307 244 155 293 307 292 271 316 292 231 110 237 259 274 269 251 230 237 259 285 273 248 259
358 355 355 356 354 353 356 42 16 10 19 48 32 11 358 334 303 252 256 293 273 281 66 169 183 146 140 34 2 1 140 77 342 304 346 4 21 285 95 80 287 224 160 86 210 238 82 56 170 153 116 26 141 185 199 221 270 223 212 207 83 127 149 281 319 315 289 161 56 337 315 290 18 254 255 39 318 271 252 276 260 236 218 229 253 244 213 224
357 356 356 357 356 356 6 59 359 357 27 64 3 350 350 333 283 217 233 349 274 253 75 166 208 90 144 343 353 57 172 56 355 308 345 15 -0 270 145 118 348 30 135 117 114 287 95 92 244 152 148 133 180 254 190 197 260 249 170 86 113 121 110 327 331 327 308 315 31 26 296 284 293 274 263 3 313 278 266 260 255 248 228 218 233 228 197 207
352 355 355 357 357 2 17 335 344 358 65 13 337 337 343 332 240 192 236 317 270 220 68 -0 339 11 336 321 327 231 216 332 4 327 8 16 4 233 216 186 149 75 112 170 241 126 110 138 177 150 151 162 205 237 95 240 261 262 81 140 128 110 73 89 349 299 301 322 313 130 294 277 282 283 316 345 295 272 256 245 240 236 228 224 228 222 206 205
347 350 352 355 355 1 5 341 349 41 20 331 328 333 340 345 170 192 275 292 286 76 67 29 45 31 337 284 338 45 285 314 9 160 14 9 28 153 248 252 155 97 71 242 253 180 99 175 187 164 166 196 197 119 38 277 280 71 129 180 96 72 70 121 260 263 334 314 252 143 42 268 262 260 109 318 278 272 259 238 230 225 218 219 224 223 210 200
346 346 347 349 351 354 355 352 10 13 332 327 328 331 340 26 194 232 54 248 297 68 73 45 114 18 340 280 18 44 272 306 6 334 277 40 41 65 141 120 123 110 85 297 289 32 33 266 232 195 194 201 111 72 350 260 67 126 148 115 90 90 71 97 276 248 147 274 242 125 11 275 266 269 166 173 256 260 262 246 230 223 218 217 222 224 204 188
348 348 343 345 351 350 353 12 14 334 327 325 328 331 336 191 233 98 115 253 332 40 330 0 272 318 334 317 7 15 343 342 340 325 324 159 53 54 88 186 126 118 100 53 65 76 33 348 299 301 336 87 109 88 21 12 95 129 155 144 119 123 87 127 260 276 221 245 211 54 344 284 280 281 207 214 273 244 243 274 251 227 228 224 224 231 216 195
350 352 346 343 350 352 355 359 344 338 328 324 332 334 331 174 0 130 182 261 10 4 351 26 346 337 7 19 352 2 14 345 331 325 17 125 78 77 125 211 170 129 213 150 97 98 137 194 214 22 9 69 124 102 55 28 104 138 184 225 244 220 144 182 161 161 236 243 106 57 322 273 254 251 203 291 281 250 242 269 278 242 231 222 216 226 222 207
351 352 348 342 349 357 353 332 335 343 335 330 337 339 184 249 247 194 256 308 334 338 51 40 322 4 12 323 266 348 355 344 359 14 37 14 302 164 186 218 182 242 265 209 167 194 164 161 92 67 297 263 218 137 107 180 223 224 206 195 259 282 274 244 211 186 245 254 93 18 302 264 247 253 271 271 262 249 236 249 275 280 258 233 214 223 225 192
352 350 349 352 358 356 346 333 334 340 336 337 343 13 88 199 228 200 274 309 323 332 65 169 266 343 313 300 300 347 320 278 7 13 38 6 288 236 297 337 163 248 270 244 293 267 228 128 122 164 177 232 245 219 172 190 179 193 195 190 229 239 258 249 221 266 275 282 103 267 290 268 264 266 252 251 265 285 259 251 262 268 268 258 244 260 269 256
354 354 5 24 10 354 345 339 340 341 342 348 4 63 87 192 244 161 263 276 282 315 334 196 302 254 233 334 348 314 267 257 18 344 283 335 267 250 229 220 214 180 142 210 257 242 256 258 160 166 100 50 244 267 331 327 157 175 293 339 232 213 249 255 245 265 277 332 128 191 253 244 257 326 239 240 274 301 263 247 246 246 250 259 269 267 263 261
-0 20 52 34 18 1 351 347 346 347 346 5 78 116 164 210 256 212 246 272 273 292 289 168 329 334 14 21 -0 320 214 194 32 352 283 305 240 249 316 203 216 199 133 197 221 135 252 270 55 63 348 329 284 340 334 303 152 145 21 316 250 263 254 249 315 301 317 315 234 193 249 245 258 297 280 255 278 272 249 238 242 247 240 236 259 256 246 252
7 47 58 29 20 8 3 4 -0 356 352 74 101 187 211 235 238 196 246 328 341 342 334 305 311 339 322 313 21 41 159 195 348 334 271 256 243 230 319 334 207 223 205 206 209 153 257 272 63 89 182 90 347 348 318 298 310 153 185 191 271 347 60 130 174 84 105 269 245 180 256 268 292 288 276 280 289 271 250 237 245 252 241 228 245 245 236 240
358 10 12 15 16 8 5 20 32 29 43 109 132 198 221 239 209 192 329 326 308 357 356 322 317 322 292 278 313 -0 193 203 339 346 355 289 248 183 205 283 159 253 315 301 249 232 270 262 71 44 153 91 -0 285 274 294 308 228 200 135 21 305 32 174 245 148 194 252 245 187 261 285 307 290 308 332 300 287 306 331 284 265 229 233 239 236 235 238
340 341 312 358 10 4 2 25 65 99 85 93 159 232 203 191 205 180 22 329 274 355 349 275 275 311 252 255 270 272 264 302 354 7 315 291 247 165 175 61 61 38 330 302 280 340 293 267 42 75 272 85 97 251 238 187 225 296 305 344 315 244 207 171 228 230 225 246 254 239 269 271 241 236 278 276 267 284 298 341 306 259 222 233 242 237 236 237
339 335 257 352 2 358 355 24 77 98 90 124 198 238 201 232 272 196 144 199 241 278 287 260 262 336 201 223 284 263 277 298 51 56 267 246 241 186 162 95 63 218 256 190 255 320 339 282 265 137 264 313 135 222 220 160 155 223 270 289 336 287 279 234 214 259 246 246 260 266 262 242 231 210 217 243 254 272 273 275 279 253 226 236 245 243 240 233
2 -0 223 325 343 347 354 34 62 78 102 141 202 208 168 265 278 97 108 310 260 253 289 278 253 287 253 228 270 267 315 282 173 169 232 230 278 228 141 106 147 174 235 157 132 312 63 260 269 131 234 257 199 199 217 176 165 187 214 208 189 215 303 287 261 0 273 251 245 253 244 244 246 188 195 240 263 263 250 267 273 264 254 251 249 251 250 243
352 62 293 330 326 331 -0 62 46 63 135 118 210 210 195 258 303 45 25 323 270 260 302 292 242 257 263 274 266 205 153 270 208 217 233 204 236 244 108 94 158 151 199 156 141 196 176 227 276 327 232 242 198 106 -0 352 29 207 222 217 209 196 178 255 247 177 0 263 244 257 255 250 252 177 189 232 254 256 220 250 266 269 265 256 248 249 248 249
338 226 334 343 334 332 12 95 36 14 171 161 209 209 180 42 255 352 45 89 232 235 280 257 225 215 218 241 263 215 215 247 199 219 246 214 216 236 98 85 201 143 149 157 152 182 145 126 262 257 255 260 52 66 65 312 336 265 259 290 276 215 206 243 250 203 188 228 42 289 271 263 252 193 199 235 251 286 207 226 260 272 268 261 256 251 246 248
-0 298 323 355 356 345 15 118 211 297 210 285 332 223 184 111 159 190 44 244 233 214 299 260 217 222 243 239 251 232 225 228 198 200 234 224 219 323 46 324 285 180 133 276 305 173 138 137 250 268 276 142 108 110 130 234 253 241 240 205 217 233 238 258 266 289 217 186 178 241 248 267 267 187 207 263 270 273 244 223 243 261 267 264 259 253 248 248
320 280 295 351 358 347 271 180 192 205 239 324 352 305 253 201 196 213 229 236 221 167 187 244 214 216 262 33 142 225 217 226 224 217 229 233 228 30 32 322 294 317 84 138 174 164 214 192 203 275 287 271 223 182 178 214 217 236 243 193 210 230 56 53 226 254 248 211 210 241 257 267 271 125 232 259 244 263 256 216 221 246 259 262 264 261 252 252
307 257 251 334 2 23 128 225 108 149 180 354 335 308 275 223 219 231 233 233 220 183 199 263 217 167 190 170 193 229 224 226 244 268 13 337 289 15 42 276 276 262 199 156 158 207 265 213 175 223 256 260 254 255 264 0 161 213 231 207 214 206 179 183 231 230 233 211 198 228 258 263 262 253 255 258 250 261 263 238 213 238 252 255 264 268 258 257
322 313 265 323 11 44 69 3 25 122 139 168 282 293 237 229 254 42 203 218 204 180 224 258 177 162 166 190 223 246 231 213 226 310 8 335 280 267 158 237 295 277 252 110 102 71 286 257 225 225 238 240 249 258 236 129 228 239 213 203 206 202 197 205 233 226 224 224 216 227 247 262 270 272 270 271 268 262 262 256 241 244 254 252 252 260 261 260
300 312 342 353 351 28 61 28 23 54 63 259 257 44 177 227 273 63 197 216 38 220 242 232 178 211 215 197 228 245 224 199 214 273 307 256 258 260 121 110 317 291 275 283 228 128 226 265 231 223 240 241 247 256 233 195 243 254 243 219 199 196 197 197 214 219 201 226 243 234 237 249 262 270 274 276 276 271 261 258 255 254 258 256 257 266 263 256
322 132 21 350 311 278 61 45 40 28 14 349 258 239 196 218 236 244 229 254 334 207 224 210 168 224 235 219 245 266 263 56 265 237 235 241 257 304 24 90 16 318 287 267 270 138 201 263 225 208 246 249 250 263 258 229 256 260 254 239 205 193 194 197 218 221 198 225 244 243 248 248 245 255 264 269 272 276 275 269 269 267 263 260 265 272 268 261
358 6 340 340 307 270 315 3 17 323 317 134 219 225 208 229 237 241 291 305 270 228 215 235 219 218 239 222 230 269 295 8 283 262 245 253 267 287 294 256 207 345 307 174 266 199 198 254 218 199 255 258 252 263 256 237 261 269 260 249 226 203 201 202 219 223 219 236 246 250 260 259 242 244 259 265 270 280 287 277 265 260 265 270 272 273 272 264
8 349 348 340 306 281 278 272 273 285 261 191 223 223 201 225 233 224 173 225 252 259 166 223 240 242 255 238 211 251 298 358 286 285 295 300 281 260 273 262 168 65 260 184 200 231 209 240 121 157 267 264 243 248 242 226 246 259 258 254 232 208 218 221 230 230 230 241 247 249 261 265 253 249 262 269 276 281 278 271 262 256 263 272 274 273 270 261
3 348 350 317 293 270 252 248 228 254 248 209 213 209 198 215 213 211 220 217 236 251 238 241 259 266 270 270 255 266 279 258 269 279 282 279 276 260 264 262 171 153 228 203 174 184 195 235 71 139 267 269 232 233 256 263 255 256 259 254 221 203 218 222 221 220 220 232 244 248 254 259 255 255 263 269 270 266 264 267 272 272 264 254 255 263 264 264
356 352 7 331 285 253 245 255 215 228 240 209 209 218 227 226 173 174 248 234 227 243 256 268 283 285 276 278 282 288 291 268 269 280 280 274 273 262 250 249 230 223 211 180 179 173 175 222 236 193 259 275 275 241 286 329 287 262 250 225 209 210 221 227 227 225 220 225 240 243 240 246 256 261 267 266 262 259 260 268 276 274 261 230 231 252 262 265